Preston, MN

6:54 PM CST on December 16, 2017 (GMT -0600)
Preston

Weather History for KFKA - January, 2014

Change the Weather History Date:

Wednesday, January 1, 2014

  Actual Average (KRST) Record (KRST)
Temperature  
Mean Temperature -1 °F -  
Max Temperature 4 °F 20 °F 44 °F (1894)
Min Temperature -6 °F 4 °F -29 °F (1974)
Degree Days  
Heating Degree Days 66    
Moisture  
Dew Point -8 °F    
Average Humidity 70    
Maximum Humidity 77    
Minimum Humidity 62    
Precipitation  
Precipitation 0.00 in - - ()
Sea Level Pressure  
Sea Level Pressure 30.31 in    
Wind  
Wind Speed 9 mph (NNE)    
Max Wind Speed 12 mph    
Max Gust Speed 16 mph    
Visibility 10 miles    
Events      
Averages and records for this station are not official NWS values.
T = Trace of Precipitation, MM = Missing Value Source: NWS Daily Summary

Daily Weather History Graph

Daily Weather History Graph

Search for Another Location

Airport or City:

Trip Planner

Search our weather history database for the weather conditions in past years. The results will help you decide how hot, cold, wet, or windy it might be!

Date:

Astronomy

Jan. 01, 2014 Rise Set
Actual Time 7:42 AM CST 4:42 PM CST
Civil Twilight 7:09 AM CST 5:15 PM CST
Nautical Twilight 6:33 AM CST 5:51 PM CST
Astronomical Twilight 5:58 AM CST 6:26 PM CST
Moon 7:31 AM CST (1/1) 5:30 PM CST (1/1)
Length of Visible Light 10h 05m
Length of Day
9h 00m
New Moon, 0% of the Moon is Illuminated
Jan 1
New Moon
Jan 7
First Quarter
Jan 15
Full
Jan 23
Last Quarter
Jan 30
New

Hourly Weather History & Observations

Time (CST) Temp. Windchill Dew Point Humidity Pressure Visibility Wind Dir Wind Speed Gust Speed Precip Events Conditions
12:13 AM -6.0 °F -23.6 °F -11.6 °F 77% 30.27 in 10.0 mi NE 10.4 mph - N/A   Clear
12:34 AM -6.5 °F -23.3 °F -12.1 °F 77% 30.27 in 10.0 mi NNE 9.2 mph - N/A   Clear
12:53 AM -5.8 °F -18.4 °F -11.4 °F 77% 30.27 in 10.0 mi NE 5.8 mph - N/A   Mostly Cloudy
1:13 AM -5.3 °F -21.7 °F -11.4 °F 75% 30.27 in 10.0 mi NE 9.2 mph - N/A   Overcast
1:34 AM -5.3 °F -20.6 °F -11.4 °F 75% 30.28 in 10.0 mi NE 8.1 mph - N/A   Overcast
1:53 AM -5.1 °F -19.1 °F -11.4 °F 74% 30.28 in 10.0 mi NNE 6.9 mph - N/A   Overcast
2:13 AM -4.9 °F -20.1 °F -11.2 °F 74% 30.29 in 10.0 mi NE 8.1 mph - N/A   Overcast
2:33 AM -4.9 °F -21.3 °F -11.2 °F 74% 30.29 in 10.0 mi NNE 9.2 mph - N/A   Overcast
2:53 AM -4.5 °F -21.9 °F -11.2 °F 73% 30.30 in 10.0 mi NNE 10.4 mph - N/A   Overcast
3:13 AM -4.5 °F -20.8 °F -11.2 °F 73% 30.30 in 10.0 mi NNE 9.2 mph - N/A   Overcast
3:33 AM -4.9 °F -18.8 °F -11.7 °F 72% 30.29 in 10.0 mi NE 6.9 mph - N/A   Scattered Clouds
3:53 AM -4.5 °F -20.8 °F -11.2 °F 73% 30.28 in 10.0 mi NE 9.2 mph - N/A   Mostly Cloudy
4:13 AM -4.5 °F -20.8 °F -11.6 °F 72% 30.28 in 10.0 mi NE 9.2 mph - N/A   Mostly Cloudy
4:33 AM -4.5 °F -19.7 °F -11.4 °F 72% 30.28 in 10.0 mi NE 8.1 mph - N/A   Mostly Cloudy
4:53 AM -4.2 °F -18.0 °F -11.2 °F 72% 30.28 in 10.0 mi NE 6.9 mph - N/A   Overcast
5:13 AM -4.0 °F -19.0 °F -11.2 °F 71% 30.28 in 10.0 mi NE 8.1 mph - N/A   Overcast
5:34 AM -4.0 °F -14.6 °F -11.2 °F 71% 30.29 in 10.0 mi NNE 4.6 mph - N/A   Overcast
5:53 AM -4.2 °F -18.0 °F -11.2 °F 72% 30.30 in 10.0 mi NNE 6.9 mph - N/A   Mostly Cloudy
6:13 AM -4.5 °F -20.8 °F -11.2 °F 73% 30.30 in 10.0 mi NNE 9.2 mph - N/A   Scattered Clouds
6:33 AM -5.1 °F -20.4 °F -11.7 °F 73% 30.30 in 10.0 mi NNE 8.1 mph - N/A   Scattered Clouds
6:53 AM -5.1 °F -19.1 °F -11.7 °F 73% 30.31 in 10.0 mi NNE 6.9 mph - N/A   Mostly Cloudy
7:13 AM -4.9 °F -21.3 °F -11.4 °F 74% 30.31 in 10.0 mi NE 9.2 mph - N/A   Overcast
7:33 AM -4.5 °F -19.7 °F -11.2 °F 73% 30.31 in 10.0 mi NE 8.1 mph - N/A   Overcast
7:53 AM -4.2 °F -20.4 °F -11.2 °F 72% 30.31 in 10.0 mi NE 9.2 mph - N/A   Overcast
8:13 AM -4.0 °F -17.8 °F -10.7 °F 73% 30.31 in 10.0 mi NE 6.9 mph - N/A   Overcast
8:32 AM -3.5 °F -17.1 °F -10.3 °F 73% 30.33 in 10.0 mi NE 6.9 mph - N/A   Overcast
8:53 AM -3.1 °F -19.1 °F -10.3 °F 71% 30.33 in 10.0 mi NE 9.2 mph - N/A   Overcast
9:13 AM -3.1 °F -19.1 °F -10.3 °F 71% 30.34 in 10.0 mi NE 9.2 mph - N/A   Mostly Cloudy
9:33 AM -2.2 °F -16.8 °F -9.6 °F 71% 30.34 in 10.0 mi NE 8.1 mph - N/A   Mostly Cloudy
9:54 AM -0.8 °F -17.2 °F -8.7 °F 69% 30.35 in 10.0 mi NE 10.4 mph - N/A   Overcast
10:13 AM -0.2 °F -15.5 °F -8.3 °F 69% 30.36 in 10.0 mi NNE 9.2 mph - N/A   Overcast
10:33 AM 0.5 °F -15.6 °F -7.8 °F 68% 30.36 in 10.0 mi NE 10.4 mph - N/A   Overcast
10:53 AM 0.5 °F -14.6 °F -7.6 °F 69% 30.35 in 10.0 mi NNE 9.2 mph - N/A   Overcast
11:13 AM 1.2 °F -12.7 °F -7.1 °F 68% 30.34 in 10.0 mi NNE 8.1 mph - N/A   Overcast
11:34 AM 1.2 °F -13.7 °F -7.1 °F 68% 30.33 in 10.0 mi NNE 9.2 mph - N/A   Overcast
11:53 AM 1.4 °F -14.5 °F -7.1 °F 68% 30.32 in 10.0 mi NNE 10.4 mph - N/A   Overcast
12:13 PM 1.8 °F -13.1 °F -6.7 °F 68% 30.32 in 10.0 mi North 9.2 mph - N/A   Overcast
12:33 PM 2.3 °F -13.4 °F -6.3 °F 67% 30.31 in 10.0 mi NNE 10.4 mph - N/A   Overcast
12:53 PM 3.2 °F -11.3 °F -5.8 °F 66% 30.31 in 10.0 mi NNE 9.2 mph - N/A   Overcast
1:13 PM 3.2 °F -13.1 °F -5.8 °F 66% 30.30 in 10.0 mi NNE 11.5 mph - N/A   Overcast
1:33 PM 3.9 °F -11.3 °F -5.8 °F 64% 30.29 in 10.0 mi NNE 10.4 mph 16.1 mph N/A   Overcast
1:53 PM 4.1 °F -12.0 °F -5.6 °F 64% 30.28 in 10.0 mi NNE 11.5 mph - N/A   Overcast
2:13 PM 4.3 °F -9.0 °F -5.4 °F 64% 30.28 in 10.0 mi NNE 8.1 mph - N/A   Overcast
2:33 PM 4.1 °F -10.2 °F -5.4 °F 65% 30.29 in 10.0 mi North 9.2 mph - N/A   Overcast
2:53 PM 3.9 °F -12.2 °F -6.0 °F 64% 30.29 in 10.0 mi North 11.5 mph - N/A   Overcast
3:12 PM 4.1 °F -11.1 °F -5.8 °F 64% 30.29 in 10.0 mi NNE 10.4 mph - N/A   Overcast
3:33 PM 4.6 °F -10.4 °F -5.8 °F 62% 30.30 in 10.0 mi NNE 10.4 mph - N/A   Overcast
3:53 PM 4.8 °F -10.2 °F -5.8 °F 62% 30.30 in 10.0 mi NE 10.4 mph - N/A   Overcast
4:13 PM 4.6 °F -9.5 °F -5.6 °F 63% 30.30 in 10.0 mi NNE 9.2 mph - N/A   Overcast
4:33 PM 4.3 °F -10.9 °F -5.3 °F 65% 30.30 in 10.0 mi NNE 10.4 mph - N/A   Overcast
4:53 PM 4.1 °F -10.2 °F -5.4 °F 65% 30.31 in 10.0 mi NNE 9.2 mph - N/A   Overcast
5:13 PM 3.9 °F -9.4 °F -5.4 °F 65% 30.31 in 10.0 mi NNE 8.1 mph - N/A   Overcast
5:33 PM 4.1 °F -10.2 °F -5.3 °F 65% 30.32 in 10.0 mi NNE 9.2 mph - N/A   Overcast
5:53 PM 4.1 °F -9.2 °F -5.1 °F 66% 30.32 in 10.0 mi NNE 8.1 mph - N/A   Overcast
6:13 PM 4.3 °F -9.0 °F -4.9 °F 66% 30.32 in 10.0 mi NNE 8.1 mph - N/A   Overcast
6:34 PM 4.5 °F -8.7 °F -4.9 °F 65% 30.32 in 10.0 mi NNE 8.1 mph - N/A   Overcast
6:53 PM 4.3 °F -7.8 °F -4.9 °F 66% 30.33 in 10.0 mi North 6.9 mph - N/A   Overcast
7:14 PM 4.1 °F -10.2 °F -4.2 °F 69% 30.33 in 10.0 mi North 9.2 mph - N/A   Overcast
7:33 PM 4.1 °F -11.1 °F -4.4 °F 68% 30.33 in 10.0 mi NNE 10.4 mph - N/A   Overcast
7:53 PM 4.1 °F -10.2 °F -4.2 °F 69% 30.33 in 10.0 mi NNE 9.2 mph - N/A   Overcast
8:13 PM 3.9 °F -12.2 °F -4.2 °F 69% 30.33 in 10.0 mi North 11.5 mph 16.1 mph N/A   Overcast
8:33 PM 3.2 °F -11.3 °F -4.0 °F 72% 30.33 in 10.0 mi North 9.2 mph - N/A   Overcast
8:53 PM 3.2 °F -11.3 °F -4.0 °F 72% 30.33 in 10.0 mi North 9.2 mph - N/A   Overcast
9:14 PM 3.0 °F -10.5 °F -4.0 °F 73% 30.33 in 10.0 mi North 8.1 mph - N/A   Overcast
9:33 PM 3.0 °F -10.5 °F -4.0 °F 73% 30.33 in 10.0 mi North 8.1 mph - N/A   Overcast
9:53 PM 2.8 °F -9.5 °F -4.0 °F 73% 30.32 in 10.0 mi North 6.9 mph - N/A   Overcast
10:13 PM 2.8 °F -9.5 °F -4.0 °F 73% 30.32 in 10.0 mi North 6.9 mph - N/A   Overcast
10:33 PM 3.0 °F -9.3 °F -3.6 °F 74% 30.33 in 10.0 mi North 6.9 mph - N/A   Overcast
10:53 PM 3.0 °F -11.5 °F -3.8 °F 73% 30.32 in 10.0 mi North 9.2 mph - N/A   Overcast
11:13 PM 3.2 °F -9.1 °F -4.0 °F 72% 30.32 in 10.0 mi North 6.9 mph - N/A   Overcast
11:33 PM 3.2 °F -9.1 °F -4.0 °F 72% 30.31 in 10.0 mi North 6.9 mph - N/A   Overcast
11:53 PM 3.2 °F -11.3 °F -4.0 °F 72% 30.31 in 10.0 mi North 9.2 mph - N/A   Overcast